Flag for Norway Weather past 2 weeks in Ålgård, Norway

Now
50 °F

Scattered clouds.


Feels Like: 44 °F
Forecast: 38 / 49 °F
Wind: 16 mph from Northwest

Location: Stavanger / Sola

Current Time: May 23, 2015 at 5:49:51 PM

Latest Report: May 23, 2015 at 4:50 PM


Visibility: N/A

Pressure: 30.15 "Hg

Humidity: 62%

Dew point: 37 °F

Location of ÅlgårdLocation

Historic Weather in Ålgård — Graph

°F

Ålgård temperature yesterday

Maximum temperature yesterday: 52 °F (at 12:20 PM)
Minimum temperature yesterday: 46 °F (at 5:50 PM)
Average temperature yesterday: 49 °F

Past Weeks' High & Low Weather Summary

 TemperatureHumidityPressure
High54 °F (May 12, 2:20 PM)100% (May 11, 5:20 PM)30.18 "Hg (May 11, 5:20 PM)
Low36 °F (May 9, 3:50 AM)40% (May 9, 11:20 AM)29.24 "Hg (May 19, 5:50 AM)
Average48 °F80%29.85 "Hg
* Reported May 8 4:20 PM — May 23 4:50 PM, Ålgård, Weather by CustomWeather, © 2015

Note: Actual official high and low records may vary slightly from our data, if they occured in-between our weather recording intervals... More about our weather records

Advertising

Ålgård weather history for previous 24 hours

 ConditionsComfort  
Time TempWeatherWind HumidityBarometerVisibility
4:50 PM
Sat, May 23
50 °FScattered clouds.16 mph62%30.15 "HgN/A
4:20 PM50 °FScattered clouds.18 mph58%30.15 "HgN/A
3:50 PM50 °FPartly sunny.17 mph71%30.15 "HgN/A
3:20 PM50 °FScattered clouds.16 mph62%30.15 "HgN/A
2:50 PM48 °FPartly sunny.17 mph62%30.18 "HgN/A
2:20 PM50 °FPartly sunny.17 mph62%30.15 "HgN/A
1:50 PM50 °FPartly sunny.16 mph62%30.15 "HgN/A
1:20 PM50 °FScattered clouds.20 mph58%30.15 "HgN/A
12:50 PM50 °FPartly sunny.18 mph62%30.15 "HgN/A
12:20 PM50 °FScattered clouds.18 mph58%30.15 "HgN/A
11:50 AM48 °FPartly sunny.16 mph66%30.15 "HgN/A
11:20 AM48 °FBroken clouds.17 mph66%30.15 "HgN/A
10:50 AM46 °FBroken clouds.14 mph76%30.12 "HgN/A
10:20 AM48 °FBroken clouds.17 mph66%30.12 "HgN/A
9:50 AM48 °FLight rain. Broken clouds.18 mph66%30.12 "HgN/A
9:20 AM48 °FPartly sunny.17 mph66%30.09 "HgN/A
8:50 AM48 °FPartly sunny.18 mph71%30.09 "HgN/A
8:20 AM48 °FCloudy.18 mph76%30.07 "HgN/A
7:50 AM46 °FPartly sunny.20 mph82%30.07 "HgN/A
7:20 AM46 °FPartly sunny.17 mph82%30.07 "HgN/A
6:50 AM46 °FPartly sunny.21 mph82%30.07 "HgN/A
6:20 AM48 °FBroken clouds.18 mph82%30.04 "HgN/A
5:50 AM48 °FPartly cloudy.18 mph82%30.04 "HgN/A
5:20 AM46 °FPartly cloudy.20 mph87%30.04 "HgN/A
4:50 AM46 °FPartly cloudy.15 mph93%30.04 "HgN/A
3:50 AM46 °FPartly cloudy.18 mph93%30.04 "HgN/A
2:50 AM48 °FPartly cloudy.18 mph82%30.04 "HgN/A
1:50 AM48 °FPartly cloudy.17 mph71%30.04 "HgN/A
12:50 AM48 °FPartly cloudy.16 mph76%30.04 "HgN/A
12:20 AM46 °FPartly cloudy.18 mph76%30.01 "HgN/A
11:50 PM
Fri, May 22
48 °FPartly cloudy.18 mph76%30.01 "HgN/A
10:50 PM48 °FScattered showers. Broken clouds.17 mph82%29.98 "HgN/A
10:20 PM48 °FBroken clouds.22 mph76%29.98 "HgN/A
9:50 PM48 °FScattered clouds.20 mph76%29.98 "HgN/A
9:20 PM48 °FScattered showers. Scattered clouds.23 mph76%29.95 "HgN/A
8:50 PM48 °FScattered showers. Broken clouds.16 mph76%29.95 "HgN/A
8:20 PM48 °FScattered clouds.16 mph76%29.95 "HgN/A
7:50 PM50 °FBroken clouds.21 mph76%29.95 "HgN/A
7:20 PM48 °FBroken clouds.18 mph87%29.95 "HgN/A
6:50 PM48 °FBroken clouds.15 mph87%29.95 "HgN/A
6:20 PM48 °FBroken clouds.10 mph82%29.95 "HgN/A
5:50 PM46 °FPartly sunny.14 mph82%29.95 "HgN/A
5:20 PM48 °FDrizzle. Broken clouds.10 mph87%29.95 "HgN/A
Weather by CustomWeather, © 2015

See weather overviewHow to use our weather pages